DELTA 1 DEB, 42636

Orbit data source: Space-Track

DELTA 1 DEB, 42636 is space debris in SSO originally from a launch on Thu, 12 Jun 1975 UTC launched from the Air Force Western Test Range (AFWTR). Debris objects in space refer to the collection of defunct objects orbiting the Earth. Examples of debris include non-operational satellites, rocket bodies, and fragments generated from explosions, collisions, or faulty payload assembly.

Loading next visibility...
Identifier
42636, 1975-052LV
Orbit
SSO
Country
Flag of USUS
Related business
Manufacturer
Unknown
Mission
Spacecraft
Bus & Motor
Unknown
Mass
Unknown
Launch date (UTC)
1975-06-12 (51 years ago)
Launch vehicle
Unknown
Launch site
Air Force Western Test Range (AFWTR)
Object type
Payload
Rocket body
Debris
Shape & HBR
Unknown shape, 0.1 m
Radar Cross Section
Small (<0.1 m²)

Expand to show TLE details & history
Last TLE update: 1 day ago

TLE from 1 day ago
0 DELTA 1 DEB
1 42636U 75052LV  25350.05853914  .00000214  00000-0  58594-3 0  9991
2 42636  99.6777 186.4832 0130925 239.1697 275.8251 13.22143600581766
Epoch: 2025-12-16T01:24Z
TLE epoch observation values (Epoch: 2025-12-16T01:24:17.781Z)
Latitude
26.12775°
Longitude
-94.76538°
Altitude
1,170.82 km
Speed
7.274 km/s
True Right ascension
00h 45m 01s
True Declination
25° 59' 58"
Sunlit
Object was in daylight at epoch
Visualization orbit readout
Latitude
Unknown
Longitude
Unknown
Altitude
Unknown
Speed
Unknown
Apparent Right ascension
Unknown
Apparent Declination
Unknown
Sunlit
N/A
Visualization observer readout
Local Sidereal Time
04:39:15
Azimuth
Unknown
Elevation
Unknown
Doppler factor
Unknown
Orbital elements
Apogee altitude
1,272.755 km
Perigee altitude
1,075.005 km
Semi-major axis
7,552.017 km
Eccentricity
0.01309
Inclination
99.6777°
RAAN
186.4832°
Arg. of periapsis
239.1697°
True anomaly
274.33024°
Mean anomaly
275.8251°
Eccentric anomaly
275.0779°
Mean motion
3.30711 °/min
Orbital period
108.86 mins
BSTAR
0.00058594
Loading maneuver chart data...
Computing Atmospheric mass density...
Loading historical data...
Loading historical data...
Loading historical data...
Loading historical data...
Loading historical data...
Loading historical data...
Loading historical data...

Documentation

Showing up to 5 results
|